Starlink 3219

operational
NORAD ID: 49724 Int'l Des: 2021-115 Owner: SPXS Country: US Constellation: starlink
LEOCIRCULAR

About Starlink 3219

Description loading...

Live Position

Loading 3D Globe...

Upcoming Passes

Altitude History

Altitude vs Time

uPlot chart will show altitude changes over time

Two-Line Element Set

1 49724U 21115A 26035.13559634 -.00000307 00000-0 -11833-5 0 9991
2 49724 53.2186 299.9748 0001371 86.1251 273.9898 15.08840994230465
Epoch: Feb 4, 2026 • Age: 17 hours

Current Status

Altitude 540.7 km
Velocity 7.59 km/s
Sub-Earth Point -0.65°S, 149.88°W
Launch Date Dec 2, 2021
Age 4.1 years
Type internet

Technical Details

Classification Payload
Mass 290.00 kg
Dry Mass 270.00 kg
Total Mass 290.00 kg
Length 0.20 m
Diameter 2.80 m
Span 9.00 m
Shape Box + pan
Manufacturer SPXS
Bus Type Starlink
Phase Status In Orbit
Owner/State SPXS/US

Large Constellations

Loading constellations...